Weather in Dalnyaya Zakora

Russia / Irkutsk Oblast     54°39′25″N   104°44′10″E
temp.,
°C
wind,
m/s
gust,
m/s
humid.,
%
clouds,
%
prec.,
mm/h
press.,
hPa
HPBL,
m
24 january, sun
sun2423:00−20wnw1197100 0.0 103420
02:00−21nw1195100 0.0 103720
05:00−23nnw1195100 0.0 103720
08:00−26nne0196100 0.0 103920
11:00−22e0095100 0.0 103933
14:00−19ene1190100 0.0 1038179
17:00−21ene1196100 0.0 103720
20:00−23ene0196100 0.0 103820
25 january, mon
mon2523:00−23ne1195100 0.0 103820
02:00−22nne1195100 0.0 103620
05:00−23n1194100 0.0 103620
08:00−23nw1193100 0.0 103620
11:00−20nw1192100 0.0 103699
14:00−16nw2488100 0.0 1034468
17:00−18nw2294100 0.0 103442
20:00−22nw2297100 0.0 103528
26 january, tue
tue2623:00−24wnw2299100 0.0 103629
02:00−26wnw2299100 0.0 103730
05:00−28wnw229999 0.0 103828
08:00−30wnw229899 0.0 103927
11:00−28nw2395100 0.0 1040142
14:00−24nw238899 0.0 1039387
17:00−26nw2296100 0.0 103931
20:00−30nw2297100 0.0 104020
27 january, wed
wed2723:00−32nw129787 0.0 104219
02:00−33nw119791 0.0 104219
05:00−34nw119864 0.0 104419
08:00−35nw119763 0.0 104519
11:00−30wnw119026 0.0 104690
14:00−24wnw128013 0.0 1044395
17:00−27nw11900 0.0 104319
20:00−32nw11920 0.0 104419
28 january, thu
thu2823:00−34se11950 0.0 104319
02:00−35ese119915 0.0 104119
05:00−34e129994 0.0 103919
08:00−33e119898 0.0 103746
11:00−30ese1298100 0.1 1034138
14:00−26se2395100 0.3 1031279
17:00−24ese2398100 0.3 1028187
20:00−24se12100100 0.6 102783